sat.trackr.live / text

‹ back to catalog

S-NET A

NORAD 43188 · 2018-014J

PAYLOAD ACTIVE UNKNOWN

§ Identity

Operator
Country
GER
Launch date
2018-02-01
Launch site
VOSTO
Launch vehicle
Mass (kg)
RCS (m²)

External: N2YO · Heavens-Above · Gunter

§ Orbital elements

Epoch: 2026-09-20T01:05:03.252192Z

Period
94.90 min
Inclination
97.5264°
Eccentricity
0.0010002
Mean motion
15.17423286 rev/d
Perigee alt
506.7 km
Apogee alt
520.5 km
Semi-major
6,891.8 km
B*
1.5127e-4
RAAN
167.4530°
Arg perigee
52.9335°
Mean anomaly
307.2811°
Rev number
47,314

§ Raw data

S-NET A1 43188U 18014J   26263.04517653  .00002960  00000+0  15127-3 0  99932 43188  97.5264 167.4530 0010002  52.9335 307.2811 15.17423286473145

JSON: /api/v1/satellites/43188 · /tle

For live sub-satellite position, see the globe view (requires WebGL).

§ Visibility from observer

Set your observer location to see the next 7 days of passes ≥ 10°. The values pass through the URL so the page stays shareable.

No JS? Fill the form by hand. The geolocation button needs JavaScript.

§ Radio — SatNOGS DB

ModeDescriptionDownlinkUplink
AFSK TUBiX10 AFSK 1k2 TLM 435.950 MHz
FM S-Band Downlink 2.263 GHz

2 transmitters · refreshed weekly from db.satnogs.org